Washington, NE

5:14 PM CST on February 12, 2016 (GMT -0600)
Blair Municipal

Weather History for KBTA - August, 2013

Change the Weather History Date:

Thursday, August 1, 2013

  Actual Average (KOMA) Record (KOMA)
Temperature  
Mean Temperature 72 °F 76 °F  
Max Temperature 85 °F 87 °F 103 °F (1964)
Min Temperature 59 °F 66 °F 55 °F (1968)
Degree Days  
Heating Degree Days 0 0  
Month to date heating degree days 0  
Since 1 June heating degree days 18  
Since 1 July heating degree days 1  
Cooling Degree Days 6 11  
Month to date cooling degree days 11  
Year to date cooling degree days 688  
Since 1 June cooling degree days 606  
Growing Degree Days 22 (Base 50)    
Moisture  
Dew Point 63 °F    
Average Humidity 74    
Maximum Humidity 92    
Minimum Humidity 42    
Precipitation  
Precipitation 0.11 in 0.13 in 2.49 in (1981)
Month to date precipitation 0.13  
Year to date precipitation 19.42  
Snow  
Snow 0.00 in 0.00 in - ()
Month to date snowfall 0.0  
Since 1 July snowfall 0.0  
Snow Depth -    
Sea Level Pressure  
Sea Level Pressure 30.04 in    
Wind  
Wind Speed 5 mph (SSE)    
Max Wind Speed 29 mph    
Max Gust Speed 34 mph    
Visibility 10 miles    
Events Rain , Thunderstorm    
T = Trace of Precipitation, MM = Missing Value Source: NWS Daily Summary

Daily Weather History Graph

Daily Weather History Graph

Search for Another Location

Airport or City:

Trip Planner

Search our weather history database for the weather conditions in past years. The results will help you decide how hot, cold, wet, or windy it might be!

Date:

Astronomy

Aug. 01, 2013 Rise Set
Actual Time 6:19 AM CDT 8:41 PM CDT
Civil Twilight 5:48 AM CDT 9:12 PM CDT
Nautical Twilight 5:09 AM CDT 9:50 PM CDT
Astronomical Twilight 4:27 AM CDT 10:33 PM CDT
Moon 1:56 AM CDT (8/1) 4:51 PM CDT (8/1)
Length of Visible Light 15h 23m
Length of Day
14h 21m
Waning Crescent, 23% of the Moon is Illuminated
Aug 1
Waning Crescent
Aug 6
New
Aug 14
First Quarter
Aug 20
Full
Aug 28
Last Quarter

Hourly Weather History & Observations

Time (CDT) Temp. Heat Index Dew Point Humidity Pressure Visibility Wind Dir Wind Speed Gust Speed Precip Events Conditions
12:15 AM 70.7 °F - 63.7 °F 78% 30.11 in 10.0 mi NNE 4.6 mph - N/A   Clear
12:35 AM 70.5 °F - 63.5 °F 78% 30.11 in 10.0 mi North 4.6 mph - N/A   Clear
12:55 AM 69.1 °F - 63.5 °F 82% 30.10 in 10.0 mi North 5.8 mph - N/A   Clear
1:15 AM 68.4 °F - 63.1 °F 83% 30.10 in 10.0 mi Calm Calm - N/A   Clear
1:35 AM 68.9 °F - 63.5 °F 83% 30.10 in 10.0 mi Calm Calm - N/A   Clear
1:55 AM 69.8 °F - 63.5 °F 80% 30.10 in 10.0 mi Calm Calm - N/A   Clear
2:15 AM 68.2 °F - 63.3 °F 84% 30.10 in 10.0 mi Calm Calm - N/A   Clear
2:35 AM 67.5 °F - 63.1 °F 86% 30.10 in 10.0 mi Calm Calm - N/A   Clear
2:55 AM 66.6 °F - 62.6 °F 87% 30.10 in 10.0 mi Calm Calm - N/A   Clear
3:15 AM 67.5 °F - 62.4 °F 84% 30.09 in 10.0 mi Calm Calm - N/A   Clear
3:35 AM 67.1 °F - 62.6 °F 85% 30.09 in 10.0 mi Calm Calm - N/A   Clear
3:55 AM 64.8 °F - 61.7 °F 90% 30.09 in 10.0 mi Calm Calm - N/A   Clear
4:15 AM 64.6 °F - 62.1 °F 92% 30.09 in 10.0 mi Calm Calm - N/A   Clear
4:35 AM 64.8 °F - 61.0 °F 88% 30.09 in 10.0 mi Calm Calm - N/A   Clear
4:55 AM 64.9 °F - 61.5 °F 89% 30.09 in 10.0 mi Calm Calm - N/A   Clear
5:15 AM 63.5 °F - 61.2 °F 92% 30.09 in 7.0 mi Calm Calm - N/A   Clear
5:35 AM 63.3 °F - 61.0 °F 92% 30.09 in 7.0 mi Calm Calm - N/A   Clear
5:55 AM 65.3 °F - 61.5 °F 88% 30.09 in 10.0 mi Calm Calm - N/A   Clear
6:15 AM 64.4 °F - 60.4 °F 87% 30.09 in 10.0 mi Calm Calm - N/A   Clear
6:35 AM 59.9 °F - 57.4 °F 91% 30.10 in 3.0 mi South 3.5 mph - N/A   Clear
6:55 AM 63.3 °F - 60.8 °F 91% 30.10 in 7.0 mi Calm Calm - N/A   Clear
7:15 AM 63.1 °F - 60.4 °F 91% 30.10 in 7.0 mi South 3.5 mph - N/A   Clear
7:35 AM 64.2 °F - 61.5 °F 91% 30.11 in 7.0 mi Calm Calm - N/A   Clear
7:55 AM 65.7 °F - 63.0 °F 91% 30.10 in 7.0 mi Calm Calm - N/A   Clear
8:15 AM 67.5 °F - 64.2 °F 89% 30.10 in 7.0 mi South 3.5 mph - N/A   Clear
8:35 AM 69.4 °F - 64.4 °F 84% 30.10 in 10.0 mi South 4.6 mph - N/A   Clear
8:55 AM 71.6 °F - 64.2 °F 77% 30.10 in 10.0 mi SSE 3.5 mph - N/A   Scattered Clouds
9:15 AM 72.0 °F - 64.6 °F 77% 30.10 in 10.0 mi SE 3.5 mph - N/A   Mostly Cloudy
9:35 AM 73.9 °F - 64.9 °F 73% 30.10 in 10.0 mi South 3.5 mph - N/A   Scattered Clouds
9:55 AM 76.8 °F - 65.3 °F 67% 30.10 in 10.0 mi SSE 5.8 mph - N/A   Scattered Clouds
10:15 AM 78.1 °F - 65.8 °F 66% 30.09 in 10.0 mi South 6.9 mph - N/A   Scattered Clouds
10:35 AM 78.4 °F - 64.9 °F 63% 30.09 in 10.0 mi South 8.1 mph - N/A   Scattered Clouds
10:55 AM 79.5 °F - 65.8 °F 63% 30.10 in 10.0 mi South 9.2 mph - N/A   Clear
11:15 AM 80.8 °F 82.5 °F 64.6 °F 58% 30.10 in 10.0 mi South 9.2 mph - N/A   Clear
11:35 AM 80.6 °F 82.7 °F 65.8 °F 61% 30.09 in 10.0 mi SSE 5.8 mph - N/A   Clear
11:55 AM 80.1 °F 81.8 °F 64.6 °F 59% 30.09 in 10.0 mi SSE 5.8 mph - N/A   Clear
12:15 PM 80.6 °F 82.3 °F 64.8 °F 58% 30.09 in 10.0 mi SSW 6.9 mph - N/A   Clear
12:35 PM 80.8 °F 82.2 °F 63.9 °F 56% 30.09 in 10.0 mi SSW 5.8 mph - N/A   Clear
12:55 PM 81.7 °F 84.2 °F 67.1 °F 61% 30.08 in 10.0 mi SSW 8.1 mph - N/A   Clear
1:15 PM 82.9 °F 85.6 °F 67.5 °F 59% 30.06 in 10.0 mi SSW 10.4 mph - N/A   Clear
1:35 PM 82.6 °F 84.7 °F 65.8 °F 57% 30.05 in 10.0 mi South 10.4 mph - N/A   Clear
1:55 PM 83.7 °F 85.8 °F 66.0 °F 55% 30.03 in 10.0 mi South 12.7 mph 17.3 mph N/A   Clear
2:15 PM 84.0 °F 84.5 °F 61.9 °F 47% 30.03 in 10.0 mi South 12.7 mph - N/A   Clear
2:35 PM 84.2 °F 85.0 °F 62.4 °F 48% 30.03 in 10.0 mi South 12.7 mph 16.1 mph N/A   Clear
2:55 PM 82.9 °F 83.8 °F 62.4 °F 50% 30.01 in 10.0 mi South 12.7 mph 18.4 mph N/A   Clear
3:15 PM 82.6 °F 83.4 °F 62.2 °F 50% 30.01 in 10.0 mi South 10.4 mph - N/A   Clear
3:35 PM 84.9 °F 84.6 °F 59.5 °F 42% 30.01 in 10.0 mi South 10.4 mph - N/A   Clear
3:55 PM 81.7 °F 82.7 °F 62.2 °F 52% 30.01 in 10.0 mi South 10.4 mph 18.4 mph N/A   Clear
4:15 PM 80.1 °F 81.8 °F 64.4 °F 59% 30.01 in 10.0 mi South 8.1 mph - N/A   Clear
4:35 PM 80.1 °F 81.7 °F 63.9 °F 58% 30.01 in 10.0 mi SSE 5.8 mph - N/A   Scattered Clouds
4:55 PM 79.3 °F - 64.4 °F 60% 30.00 in 10.0 mi SSE 5.8 mph - N/A   Overcast
5:15 PM 79.3 °F - 63.7 °F 59% 30.00 in 10.0 mi SE 4.6 mph - N/A   Overcast
5:35 PM 78.8 °F - 64.6 °F 62% 30.00 in 7.0 mi East 3.5 mph - N/A Rain , Thunderstorm Light Thunderstorms and Rain
5:55 PM 76.3 °F - 66.4 °F 71% 30.01 in 10.0 mi North 9.2 mph - N/A Rain , Thunderstorm Light Thunderstorms and Rain
6:15 PM 74.8 °F - 65.7 °F 73% 30.03 in 10.0 mi NNE 11.5 mph - N/A Rain , Thunderstorm Heavy Thunderstorms and Rain
6:35 PM 71.6 °F - 66.2 °F 83% 30.01 in 10.0 mi NE 10.4 mph - 0.01 in Rain , Thunderstorm Light Thunderstorms and Rain
6:55 PM 70.0 °F - 62.8 °F 78% 30.00 in 10.0 mi NE 11.5 mph - 0.02 in Rain , Thunderstorm Light Thunderstorms and Rain
7:15 PM 68.5 °F - 60.1 °F 74% 30.00 in 10.0 mi ENE 9.2 mph - 0.01 in Rain , Thunderstorm Rain
7:35 PM 66.6 °F - 61.7 °F 84% 30.02 in 10.0 mi NNW 8.1 mph - 0.03 in Rain , Thunderstorm Thunderstorms and Rain
7:55 PM 66.7 °F - 61.9 °F 84% 29.98 in 10.0 mi South 12.7 mph - 0.06 in Rain , Thunderstorm Light Thunderstorms and Rain
8:15 PM 67.5 °F - 63.1 °F 86% 29.91 in 7.0 mi South 28.8 mph 34.5 mph 0.02 in Rain , Thunderstorm Light Thunderstorms and Rain
8:35 PM 69.6 °F - 64.2 °F 83% 29.90 in 10.0 mi South 23.0 mph 32.2 mph 0.03 in Rain Light Rain
8:55 PM 69.6 °F - 64.4 °F 83% 29.90 in 10.0 mi South 21.9 mph 32.2 mph 0.03 in   Scattered Clouds
9:15 PM 70.7 °F - 63.9 °F 79% 29.89 in 10.0 mi South 21.9 mph 29.9 mph N/A Rain Light Rain
9:35 PM 71.1 °F - 63.5 °F 77% 29.91 in 10.0 mi South 15.0 mph 24.2 mph N/A   Clear
9:55 PM 71.1 °F - 62.4 °F 74% 29.90 in 10.0 mi South 17.3 mph 21.9 mph N/A   Clear
10:15 PM 70.5 °F - 62.6 °F 76% 29.89 in 10.0 mi South 13.8 mph 20.7 mph N/A   Clear
10:35 PM 70.5 °F - 61.9 °F 74% 29.89 in 10.0 mi South 12.7 mph 20.7 mph N/A   Clear
10:55 PM 70.7 °F - 61.5 °F 73% 29.88 in 10.0 mi SSE 15.0 mph 19.6 mph N/A   Clear
11:15 PM 70.3 °F - 60.8 °F 72% 29.89 in 10.0 mi South 13.8 mph - N/A   Clear
11:35 PM 70.3 °F - 61.2 °F 73% 29.91 in 10.0 mi South 10.4 mph - N/A   Clear
11:55 PM 69.4 °F - 61.3 °F 75% 29.91 in 10.0 mi South 9.2 mph - N/A   Clear